Orbital Elements
Epoch 2022 Aug. 9.0 TT = JDT 2459800.5
T 2021 Dec. 17.76325 TT Rudenko
q 4.8858284 (2000.0) P Q
n 0.04064804 Peri. 220.36861 +0.99606008 -0.06762560
a 8.3774070 Node 143.38801 +0.08268310 +0.94206105
e 0.4167851 Incl. 5.51992 -0.03205978 +0.32855403
P 24.2
From 123 observations 2020 Aug. 10-2022 Oct. 4, mean residual 0".2.
|